Погода в Хэджу

Северная Корея     38°02′29″N   125°42′29″E
темп.,
°C
ветер,
м/с
пор.,
м/с
влажн.,
%
обл.,
%
осадки,
мм/ч
давл.,
гПа
погр.,
м
8 марта, пн
пн800:00+3ссз22720 0.0 102836
03:00+1с23650 0.0 102857
06:000с22610 0.0 102848
09:00+3с22450 0.0 1029194
12:00+6ю21340 0.0 1029421
15:00+7ю32360 0.0 1027329
18:00+7юз34440 0.0 1027235
21:00+5ссз22530 0.0 102722
9 марта, вт
вт900:00+4ссз12519 0.0 102722
03:00+3ссз124945 0.0 102722
06:00+3сз1149100 0.0 102722
09:00+5ссз1144100 0.0 102790
12:00+8зюз2338100 0.0 1027556
15:00+11з4544100 0.0 1026782
18:00+9зсз465569 0.0 1026428
21:00+6сз336735 0.0 102849
10 марта, ср
ср1000:00+5ссз22730 0.0 102822
03:00+4ссз12770 0.0 102822
06:00+3с11810 0.0 102922
09:00+5св11700 0.0 1030110
12:00+9ююв22530 0.0 1029402
15:00+7ююз43610 0.0 1027191
18:00+8юз22580 0.0 1027170
21:00+7зсз226315 0.0 102922
11 марта, чт
чт1100:00+6зюз1163100 0.0 102922
03:00+6ю1261100 0.0 102822
06:00+5вюв1162100 0.0 102822
09:00+6вюв1157100 0.0 1029108
12:00+8ююз2250100 0.0 1029333
15:00+9вюв1251100 0.0 1027347
18:00+8св1259100 0.0 1025102
21:00+7з1267100 0.0 102624
12 марта, пт
пт1200:00+7зсз1270100 0.0 102722
03:00+6ссз226850 0.0 102622
06:00+5с22720 0.0 102722
09:00+8с22630 0.0 1028122
12:00+12ссв23510 0.0 1027526
15:00+14с12460 0.0 1026979
18:00+13с23510 0.0 1025242
21:00+10с23600 0.0 102729